Back to catalog

STARLINK-30325

AliveCommunicationsVLEO
NORAD 57717·PAYLOAD·🇺🇸 United States

Launched Aug 27, 2023 from Cape Canaveral Space Force Station

Loading…

Next Passes (next 24 hours)

TLE

FreshSource: CelesTrak SupGP

Epoch: Sep 14, 2026, 22:12 UTC

1 57717C 23129V   26257.92548611  .00004488  00000+0  16261-3 0  2571
2 57717  42.9989 129.3451 0001312 262.0028  39.7553 15.27567293    12

Track STARLINK-30325 in real time with AllMySat

Download on the App Store